Weather History for KCEU - February, 2014

Change the Weather History Date:

Saturday, February 15, 2014

  Actual Average Record
Temperature  
Mean Temperature 47 °F -  
Max Temperature 55 °F 58 °F 76 °F (1934)
Min Temperature 39 °F 35 °F 10 °F (1943)
Degree Days  
Heating Degree Days 18    
Moisture  
Dew Point 23 °F    
Average Humidity 48    
Maximum Humidity 86    
Minimum Humidity 13    
Precipitation  
Precipitation 0.05 in - - ()
Sea Level Pressure  
Sea Level Pressure 29.84 in    
Wind  
Wind Speed 8 mph (West)    
Max Wind Speed 20 mph    
Max Gust Speed 30 mph    
Visibility 9 miles    
Events Rain    
Averages and records for this station are not official NWS values.
T = Trace of Precipitation, MM = Missing Value Source: NWS Daily Summary

Daily Weather History Graph

Daily Weather History Graph

Search for Another Location

Airport or City:

Trip Planner

Search our weather history database for the weather conditions in past years. The results will help you decide how hot, cold, wet, or windy it might be!

Date:

Astronomy

Feb. 15, 2014 Rise Set
Actual Time 7:17 AM EST 6:14 PM EST
Civil Twilight 6:51 AM EST 6:40 PM EST
Nautical Twilight 6:21 AM EST 7:10 PM EST
Astronomical Twilight 5:52 AM EST 7:39 PM EST
Moon 7:09 PM EST (2/15) 7:18 AM EST (2/15)
Length of Visible Light 11h 49m
Length of Day
10h 57m
Full, 100% of the Moon is Illuminated
Feb 15
Full
Feb 22
Last Quarter
Mar 1
New
Mar 8
First Quarter
Mar 16
Full

Hourly Weather History & Observations

Time (EST) Temp. Windchill Dew Point Humidity Pressure Visibility Wind Dir Wind Speed Gust Speed Precip Events Conditions
12:54 AM 43.0 °F - 37.0 °F 80% 29.65 in 7.0 mi Calm Calm - 0.01 in Rain Light Rain
1:05 AM 42.8 °F 41.1 °F 37.4 °F 81% 29.66 in 6.0 mi SSW 3.5 mph - 0.01 in Rain Light Rain
1:36 AM 42.8 °F 41.1 °F 37.4 °F 81% 29.63 in 6.0 mi SW 3.5 mph - 0.04 in Rain Light Rain
1:54 AM 42.1 °F - 37.9 °F 85% 29.61 in 5.0 mi Calm Calm - 0.04 in Rain Light Rain
2:54 AM 42.1 °F 37.1 °F 37.9 °F 85% 29.60 in 10.0 mi WSW 8.1 mph - 0.00 in   Overcast
3:54 AM 42.1 °F 35.2 °F 37.0 °F 82% 29.60 in 10.0 mi West 12.7 mph - N/A   Mostly Cloudy
4:54 AM 39.9 °F 32.5 °F 36.0 °F 86% 29.62 in 10.0 mi West 12.7 mph - N/A   Clear
5:54 AM 41.0 °F 34.3 °F 35.1 °F 79% 29.67 in 10.0 mi West 11.5 mph - N/A   Partly Cloudy
6:54 AM 42.1 °F 35.2 °F 28.9 °F 60% 29.72 in 10.0 mi WNW 12.7 mph - N/A   Clear
7:54 AM 41.0 °F 33.5 °F 27.0 °F 57% 29.78 in 10.0 mi NW 13.8 mph 24.2 mph N/A   Clear
8:54 AM 42.1 °F 34.9 °F 25.0 °F 51% 29.84 in 10.0 mi WNW 13.8 mph 29.9 mph N/A   Clear
9:54 AM 43.0 °F 34.8 °F 21.9 °F 43% 29.86 in 10.0 mi NW 18.4 mph 27.6 mph N/A   Clear
10:54 AM 46.0 °F 40.6 °F 21.0 °F 37% 29.89 in 10.0 mi West 11.5 mph 17.3 mph N/A   Clear
11:54 AM 48.9 °F - 14.0 °F 25% 29.91 in 10.0 mi NW 12.7 mph 24.2 mph N/A   Clear
12:54 PM 52.0 °F - 9.0 °F 18% 29.90 in 10.0 mi NW 17.3 mph 28.8 mph N/A   Clear
1:54 PM 54.0 °F - 8.1 °F 16% 29.90 in 10.0 mi WNW 13.8 mph 20.7 mph N/A   Clear
2:54 PM 55.0 °F - 5.0 °F 13% 29.91 in 10.0 mi WNW 19.6 mph 26.5 mph N/A   Clear
3:54 PM 55.0 °F - 7.0 °F 15% 29.94 in 10.0 mi WNW 17.3 mph 23.0 mph N/A   Clear
4:54 PM 53.1 °F - 16.0 °F 23% 29.97 in 10.0 mi WSW 9.2 mph - N/A   Clear
5:54 PM 48.9 °F - 14.0 °F 25% 29.98 in 10.0 mi WSW 13.8 mph - N/A   Clear
6:54 PM 45.0 °F 37.9 °F 15.1 °F 30% 30.02 in 10.0 mi West 16.1 mph - N/A   Clear
7:54 PM 43.0 °F 37.7 °F 17.1 °F 35% 30.05 in 10.0 mi WNW 9.2 mph - N/A   Clear
8:54 PM 41.0 °F 35.8 °F 17.1 °F 38% 30.04 in 10.0 mi WSW 8.1 mph - N/A   Mostly Cloudy
9:54 PM 41.0 °F 34.7 °F 18.0 °F 40% 30.07 in 10.0 mi West 10.4 mph - N/A   Overcast
10:54 PM 39.9 °F 35.1 °F 16.0 °F 38% 30.06 in 10.0 mi WSW 6.9 mph - N/A   Overcast
11:54 PM 39.9 °F 33.9 °F 12.9 °F 33% 30.05 in 10.0 mi WSW 9.2 mph - N/A   Overcast